[Iaude] MPEC F73: 2019 FJ [a=0.76,e=0.61,i=44.7,H=19.1,PHA]

mpec at mpcdb1.cfa.harvard.edu mpec at mpcdb1.cfa.harvard.edu
Sun Mar 24 19:19:17 EDT 2019


M.P.E.C. 2019-F73                                Issued 2019 Mar. 24, 23:16 UT
 
     The Minor Planet Electronic Circulars contain information on unusual
         minor planets and routine data on comets.  They are published
    on behalf of Division F of the International Astronomical Union by the
          Minor Planet Center, Smithsonian Astrophysical Observatory,
                          Cambridge, MA 02138, U.S.A.

             Prepared using the Tamkin Foundation Computer Network

                              MPC at CFA.HARVARD.EDU
            URL https://www.minorplanetcenter.net/    ISSN 1523-6714


                                    2019 FJ
 
Observations:
     K19F00J* C2019 03 18.11100 05 44 56.10 +03 28 49.7          20.3 GVEF073G96
     K19F00J  C2019 03 18.11625 05 44 56.25 +03 29 07.6                VEF073G96
     K19F00J  C2019 03 18.12150 05 44 56.39 +03 29 25.5          20.4 GVEF073G96
     K19F00J  C2019 03 18.12676 05 44 56.61 +03 29 42.5          20.0 GVEF073G96
     K19F00J  C2019 03 18.19935 05 44 58.23 +03 33 50.9          20.3 GVEF073I52
     K19F00J  C2019 03 18.20011 05 44 58.28 +03 33 53.6          20.3 GVEF073I52
     K19F00J  C2019 03 18.20088 05 44 58.31 +03 33 54.9          20.8 GVEF073I52
     K19F00J  C2019 03 18.20164 05 44 58.28 +03 33 57.9          19.9 GVEF073I52
     K19F00J |C2019 03 19.02659 05 45 21.79 +04 20 41.0          20.1 GUEF073807
     K19F00J |C2019 03 19.03124 05 45 21.90 +04 20 56.7          20.2 GUEF073807
     K19F00J |C2019 03 19.03570 05 45 22.02 +04 21 11.7          20.0 GUEF073807
     K19F00J |C2019 03 22.02667 05 46 56.89 +07 03 14.6          20.4 GUEF073807
     K19F00J |C2019 03 22.03132 05 46 57.00 +07 03 29.3          20.2 GUEF073807
     K19F00J |C2019 03 22.03578 05 46 57.14 +07 03 43.4          20.0 GUEF073807
     K19F00J KC2019 03 22.79665 05 47 23.84 +07 43 06.4          20.7 GVEF073K87
     K19F00J KC2019 03 22.79927 05 47 23.93 +07 43 14.8          20.5 GVEF073K87
     K19F00J KC2019 03 22.80190 05 47 24.01 +07 43 23.0          20.5 GVEF073K87
     K19F00J KC2019 03 22.80652 05 47 24.14 +07 43 38.1          20.1 GVEF073587
     K19F00J KC2019 03 22.80826 05 47 24.21 +07 43 43.7                VEF073587
     K19F00J KC2019 03 22.81086 05 47 24.28 +07 43 51.2                VEF073587
     K19F00J KC2019 03 23.10414505 47 34.69 +07 59 00.0          20.7 VuEF073H21
     K19F00J KC2019 03 23.11167705 47 34.94 +07 59 23.0          20.9 VuEF073H21
     K19F00J KC2019 03 23.12187705 47 35.27 +07 59 54.1          20.8 VuEF073H21
     K19F00J HC2019 03 23.79184 05 47 59.97 +08 34 05.6                VEF073204
     K19F00J KC2019 03 23.80574 05 48 00.43 +08 34 48.0          20.2 GVEF073204
 
Observer details:
204 Schiaparelli Observatory.  Observer L. Buzzi.  0.84-m f/3.5 reflector +
    CCD.
587 Sormano.  Observers A. Butti, L. Iachelini, A. Mahu, L. Molteni.
    Measurer A. Mahu.  0.5-m f/6.8 reflector + CCD.
807 Cerro Tololo Observatory, La Serena.  Observers T. Linder, R. Holmes.
    1.00-m f/10.0 astrograph + CCD.
G96 Mt. Lemmon Survey.  Observer B. M. Africano.  Measurers B. M. Africano,
    E. J. Christensen, G. A. Farneth, D. C. Fuls, A. R. Gibbs, A. D. Grauer,
    H. Groeller, R. A. Kowalski, S. M. Larson, G. J. Leonard, T. A. Pruyne,
    R. L. Seaman, F. C. Shelly.  1.5-m reflector + 10K CCD.
H21 Astronomical Research Observatory, Westfield.  Observer R. Holmes.
    Measurers S. Foglia, L. Buzzi, T. Linder, R. Holmes.  0.61-m f/4.5
    astrograph + CCD.
I52 Steward Observatory, Mt. Lemmon Station.  Observer G. J. Leonard.
    Measurers B. M. Africano, E. J. Christensen, G. A. Farneth, D. C. Fuls,
    A. R. Gibbs, A. D. Grauer, H. Groeller, R. A. Kowalski, S. M. Larson,
    G. J. Leonard, T. A. Pruyne, R. L. Seaman, F. C. Shelly.  1.0-m reflector
    + CCD.
K87 Dettelbach Vineyard Observatory.  Observer B. Haeusler.  0.30-m
    Schmidt-Cassegrain + CCD.
 
Orbital elements:
2019 FJ                                             PHA, Earth MOID = 0.0205 AU
Epoch 2019 Apr. 27.0 TT = JDT 2458600.5                 MPC
M 285.52813              (2000.0)            P               Q
n   1.47802455     Peri.  150.20056     +0.65774577     +0.70021253
a   0.7632760      Node   156.74456     -0.75121685     +0.58280342
e   0.6126332      Incl.   44.67918     +0.05517014     -0.41236221
P   0.67           H   19.1           G   0.15           U   9
Residuals in seconds of arc
190318 G96  1.1-  0.4+    190319 807  0.0   0.1-    190322 587  0.0   0.4+
190318 G96  0.7-  0.4+    190319 807  0.2+  0.0     190322 587  0.2-  0.1-
190318 G96  0.4-  0.4+    190322 807  0.4+  0.1-    190323 H21  0.3+  0.2+
190318 G96  1.1+  0.6-    190322 807  0.1-  0.0     190323 H21  0.3+  0.0
190318 I52  0.0   0.4+    190322 807  0.0   0.0     190323 H21  0.2+  0.3-
190318 I52  0.4+  0.5+    190322 K87  0.2-  0.2-    190323 204  0.0   0.2-
190318 I52  0.6+  0.8-    190322 K87  0.1-  0.1+    190323 204  0.1-  0.0
190318 I52  0.1-  0.4-    190322 K87  0.2-  0.1+
190319 807  0.1+  0.2-    190322 587  0.2-  0.2+

Ephemeris:
2019 FJ                  a,e,i = 0.76, 0.61, 45                  q = 0.2957
Date    TT    R. A. (2000) Decl.     Delta      r     Elong.  Phase     V
2019 02 22    05 48 18.9 -25 07 10   0.5136  1.2276   105.1    51.1    20.0
...
2019 03 09    05 42 23.7 -06 00 02   0.5768  1.2007    96.2    55.3    20.3
...
2019 03 17    05 44 27.4 +02 24 56   0.6255  1.1750    90.0    57.8    20.5
...
2019 03 23    05 47 31.4 +07 53 43   0.6650  1.1504    85.2    59.7    20.7
2019 03 24    05 48 08.0 +08 44 43   0.6717  1.1459    84.4    60.0    20.7
2019 03 25    05 48 46.1 +09 34 43   0.6784  1.1412    83.5    60.2    20.7
...
2019 03 31    05 53 02.4 +14 14 55   0.7184  1.1103    78.7    61.9    20.8
...
2019 04 08    05 59 39.6 +19 43 22   0.7690  1.0614    72.3    64.0    20.9
...
2019 04 23    06 12 51.3 +28 21 22   0.8443  0.9442    60.7    68.1    21.0

A. U. Tomatic                (C) Copyright 2019 MPC           M.P.E.C. 2019-F73



More information about the Iaude mailing list